This is the latest recevied weather packets stored in our database for station/object AB4KY. If no packets are shown the sender has not sent any weather packets the latest 10 day(s).
| Time | Temp. | Humidity | Pressure | Rain* | Wind** | Luminosity | Snow |
|---|---|---|---|---|---|---|---|
| 1778023428 | 15.56° C | 99% | 1004.8 hPa | 0 mm | - | 11 W/m² | - |
| 1778023124 | 15.56° C | 99% | 1004.7 hPa | 1.27 mm | - | 24 W/m² | - |
| 1778022822 | 15.56° C | 99% | 1004.6 hPa | 1.78 mm | - | 45 W/m² | - |
| 1778022520 | 16.11° C | 99% | 1005 hPa | 0.51 mm | - | 24 W/m² | - |
| 1778022217 | 16.11° C | 99% | 1004.8 hPa | 1.27 mm | - | 15 W/m² | - |
| 1778021914 | 16.11° C | 99% | 1005.2 hPa | 3.05 mm | - | 20 W/m² | - |
| 1778021611 | 16.11° C | 99% | 1005.1 hPa | 3.56 mm | - | 12 W/m² | - |
| 1778021306 | 16.11° C | 99% | 1005.7 hPa | 4.32 mm | - | 15 W/m² | - |
| 1778021004 | 16.11° C | 99% | 1005.3 hPa | 3.05 mm | - | 16 W/m² | - |
| 1778020701 | 16.11° C | 99% | 1005.2 hPa | 2.29 mm | - | 16 W/m² | - |
| 1778020398 | 16.11° C | 99% | 1005.2 hPa | 1.78 mm | - | 24 W/m² | - |
| 1778020093 | 16.11° C | 99% | 1005.3 hPa | 1.27 mm | - | 23 W/m² | - |
| 1778019790 | 16.11° C | 99% | 1005.5 hPa | 0 mm | - | 5 W/m² | - |
| 1778019487 | 16.11° C | 99% | 1005.2 hPa | 0 mm | - | 5 W/m² | - |
| 1778019183 | 16.11° C | 99% | 1005.1 hPa | 0 mm | - | 24 W/m² | - |
| 1778018881 | 16.11° C | 99% | 1005.2 hPa | 0 mm | - | 21 W/m² | - |
| 1778018578 | 16.67° C | 99% | 1005.1 hPa | 0 mm | - | 26 W/m² | - |
| 1778018276 | 16.11° C | 99% | 1005 hPa | 0 mm | - | 39 W/m² | - |
| 1778017973 | 16.11° C | 99% | 1005.2 hPa | 0 mm | - | 23 W/m² | - |
| 1778017671 | 16.11° C | 99% | 1005 hPa | 0 mm | - | 16 W/m² | - |
| 1778017368 | 16.11° C | 99% | 1005.1 hPa | 0 mm | - | 28 W/m² | - |
| 1778017065 | 16.11° C | 99% | 1005.3 hPa | 0 mm | - | 33 W/m² | - |
| 1778016763 | 16.11° C | 99% | 1005.6 hPa | 0 mm | - | 34 W/m² | - |
| 1778016458 | 16.11° C | 99% | 1005.4 hPa | 0 mm | - | 17 W/m² | - |
| 1778016156 | 16.11° C | 99% | 1005.7 hPa | 0 mm | - | 23 W/m² | - |
* Rain latest hour (hover to see other rain measurements)
** Current wind speed in m/s (hover to see current wind gust speed)